When you browse on this site, cookies collect data to enhance your experience and personalize the content and advertising you see.
Visit our Privacy Policy to learn more. By continuing to use the site, you agree to this use of cookies and data.
  • In Österreich
  • Länderverzeichnis
  • Für 7 Tage
  • Wassertemperatur
  • Wetterkarte
  • News
  • Widgets
  • user-avatar
    Anmelden

    Stündliche Wetter Novoahmerovo

    Heute, 4 Juni, Donnerstag

    Zeit Temperatur Niederschläge Wind Luftdruck Luftfeuchtigkeit
    00:00 +19°C° 0 mm 6 m/S 743 mmHg 70%
    01:00 +17°C° 0 mm 6 m/S 743 mmHg 69%
    02:00 +17°C° 0 mm 6 m/S 743 mmHg 70%
    03:00 +16°C° 0 mm 6 m/S 743 mmHg 71%
    04:00 +16°C° 0 mm 6 m/S 743 mmHg 71%
    05:00 +16°C° 0.1 mm 7 m/S 743 mmHg 71%
    06:00 +16°C° 0.1 mm 7 m/S 743 mmHg 72%
    07:00 +16°C° 0.1 mm 8 m/S 742 mmHg 72%
    08:00 +18°C° 0 mm 8 m/S 743 mmHg 69%
    09:00 +20°C° 0 mm 8 m/S 743 mmHg 66%
    10:00 +22°C° 0 mm 9 m/S 743 mmHg 63%
    11:00 +23°C° 0 mm 9 m/S 743 mmHg 60%
    12:00 +24°C° 0 mm 9 m/S 743 mmHg 58%
    13:00 +26°C° 0 mm 9 m/S 743 mmHg 55%
    14:00 +26°C° 0 mm 8 m/S 743 mmHg 54%
    15:00 +26°C° 0 mm 8 m/S 743 mmHg 54%
    16:00 +26°C° 0 mm 7 m/S 743 mmHg 53%
    17:00 +24°C° 0 mm 7 m/S 743 mmHg 57%
    18:00 +23°C° 0 mm 6 m/S 744 mmHg 60%
    19:00 +22°C° 0 mm 6 m/S 744 mmHg 64%
    20:00 +21°C° 0 mm 6 m/S 744 mmHg 60%
    21:00 +21°C° 0 mm 7 m/S 744 mmHg 57%
    22:00 +20°C° 0 mm 8 m/S 744 mmHg 53%
    23:00 +20°C° 0.1 mm 7 m/S 745 mmHg 54%

    Morgen, 5 Juni, Freitag

    Zeit Temperatur Niederschläge Wind Luftdruck Luftfeuchtigkeit
    00:00 +18°C° 0.1 mm 7 m/S 745 mmHg 55%
    01:00 +17°C° 0.1 mm 7 m/S 745 mmHg 55%
    02:00 +17°C° 0.1 mm 7 m/S 745 mmHg 55%
    03:00 +17°C° 0.1 mm 6 m/S 746 mmHg 54%
    04:00 +17°C° 0.1 mm 6 m/S 746 mmHg 53%
    05:00 +16°C° 0.2 mm 6 m/S 746 mmHg 59%
    06:00 +15°C° 0.2 mm 6 m/S 746 mmHg 64%
    07:00 +14°C° 0.2 mm 7 m/S 746 mmHg 69%
    08:00 +15°C° 0.1 mm 7 m/S 747 mmHg 68%
    09:00 +16°C° 0.1 mm 7 m/S 747 mmHg 66%
    10:00 +16°C° 0.1 mm 8 m/S 748 mmHg 65%
    11:00 +17°C° 0 mm 7 m/S 748 mmHg 64%
    12:00 +17°C° 0 mm 7 m/S 747 mmHg 63%
    13:00 +18°C° 0 mm 7 m/S 747 mmHg 62%
    14:00 +20°C° 0 mm 6 m/S 747 mmHg 60%
    15:00 +21°C° 0 mm 6 m/S 747 mmHg 57%
    16:00 +22°C° 0 mm 5 m/S 747 mmHg 55%
    17:00 +22°C° 0 mm 5 m/S 747 mmHg 57%
    18:00 +21°C° 0 mm 5 m/S 747 mmHg 59%
    19:00 +21°C° 0 mm 5 m/S 747 mmHg 60%
    20:00 +20°C° 0 mm 5 m/S 747 mmHg 57%
    21:00 +20°C° 0 mm 6 m/S 747 mmHg 55%
    22:00 +18°C° 0 mm 7 m/S 747 mmHg 52%
    23:00 +17°C° 0.1 mm 6 m/S 747 mmHg 52%

    übermorgen, 6 Juni, Samstag

    Zeit Temperatur Niederschläge Wind Luftdruck Luftfeuchtigkeit
    00:00 +17°C° 0.1 mm 6 m/S 747 mmHg 52%
    01:00 +16°C° 0.1 mm 5 m/S 747 mmHg 52%
    02:00 +16°C° 0.3 mm 5 m/S 747 mmHg 57%
    03:00 +15°C° 0.3 mm 5 m/S 747 mmHg 61%
    04:00 +14°C° 0.3 mm 4 m/S 748 mmHg 66%
    05:00 +14°C° 0.1 mm 5 m/S 748 mmHg 66%
    06:00 +14°C° 0.1 mm 5 m/S 748 mmHg 66%
    07:00 +15°C° 0.1 mm 6 m/S 748 mmHg 65%
    08:00 +15°C° 0.2 mm 6 m/S 748 mmHg 70%
    09:00 +15°C° 0.2 mm 5 m/S 748 mmHg 75%
    10:00 +15°C° 0.2 mm 5 m/S 748 mmHg 80%
    11:00 +15°C° 0.4 mm 5 m/S 748 mmHg 80%
    12:00 +15°C° 0.4 mm 5 m/S 748 mmHg 81%
    13:00 +15°C° 0.4 mm 4 m/S 748 mmHg 81%
    14:00 +17°C° 0.3 mm 4 m/S 749 mmHg 80%
    15:00 +17°C° 0.3 mm 4 m/S 749 mmHg 79%
    16:00 +17°C° 0.3 mm 4 m/S 749 mmHg 79%
    17:00 +17°C° 0 mm 4 m/S 749 mmHg 77%
    18:00 +17°C° 0 mm 3 m/S 749 mmHg 76%
    19:00 +17°C° 0 mm 3 m/S 749 mmHg 74%
    20:00 +16°C° 0 mm 3 m/S 749 mmHg 76%
    21:00 +14°C° 0 mm 3 m/S 749 mmHg 78%
    22:00 +14°C° 0 mm 2 m/S 749 mmHg 80%
    23:00 +14°C° 0 mm 2 m/S 749 mmHg 79%

    7 Juni, Sonntag

    Zeit Temperatur Niederschläge Wind Luftdruck Luftfeuchtigkeit
    00:00 +14°C° 0 mm 2 m/S 749 mmHg 79%
    01:00 +14°C° 0 mm 2 m/S 749 mmHg 78%
    02:00 +14°C° 0 mm 2 m/S 750 mmHg 78%
    03:00 +13°C° 0 mm 2 m/S 750 mmHg 77%
    04:00 +13°C° 0 mm 2 m/S 750 mmHg 76%
    05:00 +14°C° 0 mm 2 m/S 750 mmHg 73%
    06:00 +16°C° 0 mm 2 m/S 750 mmHg 70%
    07:00 +17°C° 0 mm 3 m/S 750 mmHg 67%
    08:00 +19°C° 0 mm 3 m/S 750 mmHg 61%
    09:00 +21°C° 0 mm 4 m/S 751 mmHg 55%
    10:00 +22°C° 0 mm 4 m/S 751 mmHg 48%
    11:00 +23°C° 0 mm 4 m/S 751 mmHg 46%
    12:00 +25°C° 0 mm 4 m/S 751 mmHg 44%
    13:00 +26°C° 0 mm 4 m/S 751 mmHg 42%
    14:00 +26°C° 0 mm 4 m/S 750 mmHg 41%
    15:00 +26°C° 0 mm 4 m/S 750 mmHg 41%
    16:00 +26°C° 0 mm 3 m/S 750 mmHg 41%
    17:00 +26°C° 0 mm 2 m/S 750 mmHg 45%
    18:00 +25°C° 0 mm 2 m/S 750 mmHg 49%
    19:00 +25°C° 0 mm 1 m/S 749 mmHg 53%
    20:00 +23°C° 0 mm 2 m/S 749 mmHg 55%
    21:00 +20°C° 0 mm 2 m/S 749 mmHg 57%
    22:00 +18°C° 0 mm 3 m/S 749 mmHg 60%
    23:00 +18°C° 0 mm 3 m/S 749 mmHg 57%

    8 Juni, Montag

    Zeit Temperatur Niederschläge Wind Luftdruck Luftfeuchtigkeit
    00:00 +17°C° 0 mm 3 m/S 749 mmHg 55%
    01:00 +17°C° 0 mm 3 m/S 749 mmHg 53%
    02:00 +16°C° 0 mm 3 m/S 749 mmHg 53%
    03:00 +16°C° 0 mm 3 m/S 749 mmHg 54%
    04:00 +16°C° 0 mm 3 m/S 750 mmHg 54%
    05:00 +17°C° 0 mm 3 m/S 750 mmHg 56%
    06:00 +17°C° 0 mm 3 m/S 750 mmHg 58%
    07:00 +18°C° 0 mm 2 m/S 750 mmHg 59%
    08:00 +19°C° 0 mm 3 m/S 750 mmHg 56%
    09:00 +21°C° 0 mm 3 m/S 750 mmHg 52%
    10:00 +22°C° 0 mm 4 m/S 751 mmHg 49%
    11:00 +25°C° 0 mm 4 m/S 751 mmHg 45%
    12:00 +26°C° 0 mm 4 m/S 751 mmHg 41%
    13:00 +27°C° 0 mm 5 m/S 751 mmHg 37%
    14:00 +27°C° 0 mm 4 m/S 751 mmHg 36%
    15:00 +27°C° 0 mm 4 m/S 750 mmHg 35%
    16:00 +28°C° 0 mm 4 m/S 750 mmHg 34%
    17:00 +27°C° 0 mm 3 m/S 750 mmHg 39%
    18:00 +26°C° 0 mm 2 m/S 750 mmHg 44%
    19:00 +25°C° 0 mm 1 m/S 750 mmHg 49%
    20:00 +24°C° 0 mm 2 m/S 750 mmHg 53%
    21:00 +21°C° 0 mm 3 m/S 750 mmHg 57%
    22:00 +19°C° 0 mm 3 m/S 751 mmHg 61%
    23:00 +19°C° 0 mm 4 m/S 751 mmHg 60%

    9 Juni, Dienstag

    Zeit Temperatur Niederschläge Wind Luftdruck Luftfeuchtigkeit
    00:00 +18°C° 0 mm 4 m/S 751 mmHg 60%
    01:00 +18°C° 0 mm 4 m/S 751 mmHg 60%
    02:00 +18°C° 0 mm 4 m/S 751 mmHg 59%
    03:00 +18°C° 0 mm 4 m/S 751 mmHg 58%
    04:00 +17°C° 0 mm 4 m/S 751 mmHg 57%
    05:00 +19°C° 0 mm 4 m/S 752 mmHg 57%
    06:00 +20°C° 0 mm 4 m/S 752 mmHg 56%
    07:00 +21°C° 0 mm 4 m/S 752 mmHg 55%
    08:00 +23°C° 0 mm 4 m/S 753 mmHg 51%
    09:00 +26°C° 0 mm 4 m/S 753 mmHg 47%
    10:00 +27°C° 0 mm 4 m/S 753 mmHg 43%
    11:00 +28°C° 0 mm 4 m/S 753 mmHg 40%
    12:00 +29°C° 0 mm 4 m/S 753 mmHg 37%
    13:00 +29°C° 0 mm 4 m/S 753 mmHg 33%
    14:00 +29°C° 0 mm 3 m/S 753 mmHg 33%
    15:00 +30°C° 0 mm 3 m/S 753 mmHg 33%
    16:00 +30°C° 0 mm 3 m/S 753 mmHg 32%
    17:00 +29°C° 0 mm 2 m/S 753 mmHg 38%
    18:00 +28°C° 0 mm 2 m/S 753 mmHg 43%
    19:00 +27°C° 0 mm 2 m/S 753 mmHg 49%
    20:00 +25°C° 0 mm 2 m/S 753 mmHg 50%
    21:00 +24°C° 0 mm 2 m/S 753 mmHg 51%
    22:00 +21°C° 0 mm 2 m/S 753 mmHg 52%
    23:00 +21°C° 0 mm 2 m/S 753 mmHg 53%
    Mehr zeigen